Location: Newark
(42.0275°N, 4.0028°W)
Time: 10:09:54
(UTC+00:00)

ISS - Visible Passes

Search period start: 30 September 2020 00:00
Search period end: 10 October 2020 00:00
Orbit: 419 x 421 km, 51.6° (Epoch: 30 September)

Date Brightness Start Highest point End Pass type
(mag) Time Alt. Az. Time Alt. Az. Time Alt. Az.
30 Sep -2.2 19:51:44 10° NW 19:54:06 28° N 19:54:06 28° N visible
01 Oct -2.2 19:04:32 10° NW 19:07:21 24° NNE 19:08:39 19° NE visible
01 Oct -0.5 20:41:05 10° WNW 20:41:37 14° WNW 20:41:37 14° WNW visible
02 Oct -2.7 19:53:47 10° NW 19:56:12 42° NW 19:56:12 42° NW visible
03 Oct -3.2 19:06:32 10° NW 19:09:47 44° NNE 19:10:50 32° ENE visible
03 Oct -0.3 20:43:39 10° WNW 20:43:49 11° W 20:43:49 11° W visible
04 Oct -2.7 18:19:17 10° NW 18:22:21 31° NNE 18:25:25 10° E visible
04 Oct -2.3 19:56:02 10° WNW 19:58:32 35° WSW 19:58:32 35° WSW visible
05 Oct -3.6 19:08:35 10° WNW 19:11:58 71° SW 19:13:21 32° SE visible
06 Oct -3.7 18:21:15 10° NW 18:24:37 70° NNE 18:27:58 10° ESE visible
06 Oct -1.1 19:59:07 10° W 20:01:03 14° SW 20:01:16 14° SW visible
07 Oct -1.6 19:11:05 10° W 19:13:52 24° SW 19:16:21 12° S visible
08 Oct -2.5 18:23:25 10° WNW 18:26:36 40° SW 18:29:46 10° SSE visible
